Location: Sungai Bunut
(2.6333°N, 113.7333°E)
Time: 11:01:33
(UTC+00:00)

Sich 1 Rocket - Pass Details

Date: 16 October 2021
Orbit: 617 x 651 km, 82.5° (Epoch: 28 November)

Event Time Altitude Azimuth Distance (km) Brightness Sun altitude
Rises 20:52:18 0° 1° (N) 2,889 6.9 -19.7°
Reaches altitude 10° 20:54:32 10° 4° (N) 1,990 6.1 -19.2°
Maximum altitude 20:58:54 65° 86° (E) 690 4.0 -18.1°
Drops below altitude 10° 21:03:21 10° 168° (SSE) 2,019 6.4 -17.0°
Sets 21:05:37 0° 171° (S) 2,935 7.3 -16.4°
